Simultaneous Nadir Overpasses (SNOs) Predictions

Prediction of SNOs between AQUA and GOES-15 Satellite Orbit:

Table of predicted SNOs for the next 14.0 days since TLE Epoch: 9/14/2018
Index Date Time (AQUA) AQUA Lat,Lon GOES-15 Lat,Lon Distance(km) Time Diff (sec)
1 09/14/2018 22:53:33 -1.21,-139.31 -0.36,-135.35 449.84 80
2 09/16/2018 10:19:57 -0.55,-131.16 0.37,-135.42 484.84 80
3 09/16/2018 22:41:20 -0.54,-136.35 -0.36,-135.41 107.13 80
4 09/18/2018 22:29:07 0.07,-133.38 -0.36,-135.45 234.99 80
5 09/19/2018 10:50:21 1.00,-138.54 0.34,-135.50 346.20 80
6 09/21/2018 10:38:08 0.33,-135.59 0.34,-135.54 5.52 80
7 09/23/2018 10:25:54 -0.29,-132.62 0.34,-135.58 336.24 80
8 09/23/2018 22:47:18 -0.81,-137.81 -0.33,-135.55 257.72 80
9 09/25/2018 22:35:04 -0.18,-134.85 -0.33,-135.58 82.92 80
10 09/26/2018 10:56:19 1.25,-140.01 0.31,-135.63 497.34 80
11 09/27/2018 22:22:50 0.44,-131.88 -0.33,-135.60 423.03 80
12 09/28/2018 10:44:05 0.62,-137.04 0.32,-135.66 157.67 80




NCC Satellite Simultaneous Nadir Overpasses (SNOs) Prediction Service
